This is the latest recevied weather packets stored in our database for station/object KI5GCD-13. If no packets are shown the sender has not sent any weather packets the latest 10 day(s).
| Time | Temp. | Humidity | Pressure | Rain* | Wind** | Luminosity | Snow |
|---|---|---|---|---|---|---|---|
| 1777137287 | 23.89° C | 72% | 1006.4 hPa | 0 mm | 0.45 m/s, 245° | - | - |
| 1777136987 | 23.33° C | 71% | 1006.6 hPa | 0 mm | 0.45 m/s, 240° | - | - |
| 1777136687 | 23.89° C | 68% | 1006.7 hPa | 0 mm | 0.89 m/s, 239° | - | - |
| 1777136387 | 23.33° C | 72% | 1006.7 hPa | 0 mm | 0.89 m/s, 259° | - | - |
| 1777136088 | 23.89° C | 69% | 1006.7 hPa | 0 mm | 0.89 m/s, 247° | - | - |
| 1777135787 | 22.78° C | 70% | 1006.7 hPa | 0 mm | 0.89 m/s, 225° | - | - |
| 1777135487 | 22.78° C | 69% | 1006.9 hPa | 0 mm | 1.79 m/s, 253° | - | - |
| 1777135187 | 22.78° C | 70% | 1006.6 hPa | 0 mm | 1.34 m/s, 266° | - | - |
| 1777134888 | 22.78° C | 68% | 1006.5 hPa | 0 mm | 0.45 m/s, 216° | - | - |
| 1777134587 | 22.78° C | 68% | 1006.5 hPa | 0 mm | 0.89 m/s, 209° | - | - |
| 1777134287 | 22.78° C | 68% | 1006.4 hPa | 0 mm | 0.45 m/s, 213° | - | - |
| 1777133987 | 22.78° C | 66% | 1006.3 hPa | 0 mm | 0.45 m/s, 252° | - | - |
| 1777133687 | 23.33° C | 69% | 1006.4 hPa | 0 mm | 0.45 m/s, 270° | - | - |
| 1777133387 | 22.78° C | 68% | 1006.3 hPa | 0 mm | 0.45 m/s, 231° | - | - |
| 1777133087 | 22.22° C | 68% | 1006 hPa | 0 mm | 0.89 m/s, 171° | - | - |
| 1777132787 | 22.22° C | 70% | 1006.4 hPa | 0 mm | 0.45 m/s, 177° | - | - |
| 1777132487 | 22.22° C | 70% | 1006.2 hPa | 0 mm | 0.89 m/s, 224° | - | - |
| 1777132187 | 21.67° C | 72% | 1006.3 hPa | 0 mm | 0.89 m/s, 221° | - | - |
| 1777131888 | 21.67° C | 73% | 1006.2 hPa | 0 mm | 1.34 m/s, 195° | - | - |
| 1777131587 | 21.67° C | 75% | 1006.2 hPa | 0 mm | 0.89 m/s, 327° | - | - |
| 1777131287 | 21.11° C | 73% | 1006.2 hPa | 0 mm | 0.89 m/s, 286° | - | - |
| 1777130987 | 21.11° C | 77% | 1006 hPa | 0 mm | 0.45 m/s, 280° | - | - |
| 1777130687 | 21.11° C | 76% | 1005.9 hPa | 0 mm | 1.34 m/s, 176° | - | - |
| 1777130387 | 21.11° C | 78% | 1005.9 hPa | 0 mm | 1.79 m/s, 176° | - | - |
| 1777130087 | 20.56° C | 78% | 1006 hPa | 0 mm | 0.89 m/s, 243° | - | - |
* Rain latest hour (hover to see other rain measurements)
** Current wind speed in m/s (hover to see current wind gust speed)